{"data":{"norad_id":68490,"epoch":"2026-05-24T20:31:06.335616Z","epoch_age_seconds":87272,"freshness":"FRESH","line1":"1 68490U 26067CC  26144.85493444  .00001619  00000+0  16852-3 0  9997","line2":"2 68490  97.7601 103.4466 0003980  97.3132 262.8539 14.91211036  8245","mean_motion":14.91211036,"eccentricity":0.000398,"inclination_deg":97.7601,"raan_deg":103.4466,"arg_perigee_deg":97.3132,"mean_anomaly_deg":262.8539,"bstar":0.00016852,"rev_number":824,"period_min":96.565808945636,"perigee_km":591.38326127759,"apogee_km":596.93320828448,"semimajor_km":6972.295234781,"source":"CELESTRAK","updated_at":"2026-05-25T13:38:07.874793Z"}}